Tracking 29892 objects as of 21-Nov-2024
HD Live streaming from Space Station
objects crossing your sky now

DELTA 1 DEB

Track DELTA 1 DEB now!
10-day predictions


NORAD ID: 12825
Int'l Code: 1978-026EW
Perigee: 876.3 km
Apogee: 963.1 km
Inclination: 99.4 °
Period: 103.3 minutes
Semi major axis: 7290 km
RCS: 0.046 m2 (small)
Launch date: March 5, 1978
Source: United States (US)
Launch site: AIR FORCE WESTERN TEST RANGE (AFWTR)

Note: This is SATELLITE DEBRIS
Your satellite tracking list
Your tracking list is empty




NASA's NSSDC Master Catalog

Two Line Element Set (TLE):
1 12825U 78026EW  24324.60250579  .00000488  00000-0  39482-3 0  9999
2 12825  99.4365 178.6526 0059500 255.5837 164.9556 13.94599449224860
Source of the keplerian elements: AFSPC